EFHK

Helsinki/Vantaa

Airport
ICAO code
EFHK
Summary
ICAO Region
EUR
ICAO Territory
Location

Helsinki, Finland,

Elevation
179 ft
Coordinates
60° 19' 2" N , 24° 57' 48" E
KCC
Metar
EFHK 130320Z 19005KT 0800 R04L/P2000N R15/P2000N R22L/P2000N R22R/1900U FG VV002 03/03 Q1010 TEMPO 0700

Description

International airport serving capital city of Finland.

Climatology

Humid Continental climate (Köppen climate classification Dfb) - Variable weather patterns and a large seasonal temperature variance. Summers are often warm and humid with frequent thunderstorms and winters can be very cold with frequent snowfall and persistent snow cover.

Runways

Designator Length Width Surface Rops
15/33 2901 60 ASP Yes/Yes
04L/22R 3060 60 ASP Yes/Yes
04R/22L 3440 60 ASP Yes/Yes

SKYbrary Partners:

Safety knowledge contributed by: